Location: Ayer Observatory
(42.2600°N, 71.0700°W)
Time: 03:08:03
(UTC-04:00)

Envisat - Visible Passes

Search period start: 16 October 2019 00:00
Search period end: 26 October 2019 00:00
Orbit: 764 x 766 km, 98.1° (Epoch: 15 October)

Date Brightness Start Highest point End Pass type
(mag) Time Alt. Az. Time Alt. Az. Time Alt. Az.
16 Oct 6.3 06:26:52 10° NE 06:29:50 15° E 06:32:46 10° SE visible
16 Oct 4.1 19:19:24 10° S 19:24:17 46° W 19:29:10 10° NNW visible
17 Oct 3.0 18:42:23 10° SSE 18:47:27 81° ENE 18:52:34 10° N visible
17 Oct 6.2 20:25:16 10° WSW 20:27:05 12° W 20:28:54 10° WNW visible
18 Oct 5.2 19:45:41 10° SSW 19:49:55 26° W 19:54:12 10° NW visible
19 Oct 6.6 06:16:32 10° ENE 06:18:25 12° E 06:20:17 10° ESE visible
19 Oct 3.7 19:07:59 10° S 19:12:59 58° W 19:18:00 10° NNW visible
20 Oct 3.0 18:31:13 10° SSE 18:36:13 64° ENE 18:41:16 10° N visible
20 Oct 6.0 20:12:46 10° SW 20:15:41 15° W 20:18:37 10° NW visible
21 Oct 4.8 19:34:02 10° SSW 19:38:35 33° W 19:43:10 10° NNW visible
22 Oct 3.2 18:56:37 10° S 19:01:41 74° WSW 19:06:47 10° NNW visible
23 Oct 3.2 18:20:06 10° SE 18:24:59 51° ENE 18:29:55 10° N visible
23 Oct 5.6 20:00:42 10° SW 20:04:18 19° W 20:07:55 10° NW visible
24 Oct 6.1 06:29:35 10° NE 06:32:51 17° E 06:36:05 10° SE visible
24 Oct 4.3 19:22:28 10° S 19:27:16 42° W 19:32:05 10° NNW visible
25 Oct 3.0 18:45:21 10° SSE 18:50:26 88° ENE 18:55:33 10° NNW visible
25 Oct 6.3 20:29:05 10° W 20:30:06 11° W 20:31:08 10° WNW visible
